SPACEMOBILE-SSR03 DEB, 62371

Orbit data source: Space-Track

SPACEMOBILE-SSR03 DEB, 62371 is space debris in LEO originally from a launch on Thu, 12 Sep 2024 UTC launched from the Air Force Eastern Test Range (AFETR). Debris objects in space refer to the collection of defunct objects orbiting the Earth. Examples of debris include non-operational satellites, rocket bodies, and fragments generated from explosions, collisions, or faulty payload assembly.

Loading next visibility...
Identifier
62371, 2024-163H
Orbit
LEO
Country
Flag of USUS
Related business
Manufacturer
AST & Science
Mission
Spacecraft
Bus & Motor
BW3 LVA, Unknown motor
Mass
150 kg wet, 150 kg dry
Launch date (UTC)
2024-09-12 (1 year ago)
Launch vehicle
Unknown
Launch site
Air Force Eastern Test Range (AFETR)
Object type
Payload
Rocket body
Debris
Shape & HBR
Cyl, 3.8 m
Radar Cross Section
1.963 m², Large (>1 m²)

Expand to show TLE details & history
Last TLE update: 12 hours ago

TLE from 12 hours ago
0 SPACEMOBILE-SSR03 DEB
1 62371U 24163H   26035.68265924  .00022994  00000-0  66718-3 0  9990
2 62371  52.9714 177.0329 0009448  91.7755 268.4328 15.35401601 71497
Epoch: 2026-02-04T16:23Z
TLE epoch observation values (Epoch: 2026-02-04T16:23:01.758Z)
Latitude
0.00001°
Longitude
156.42985°
Altitude
460.792 km
Speed
7.637 km/s
True Right ascension
11h 48m 07s
True Declination
0° 00' 00"
Sunlit
Object was in full shadow at epoch
Visualization orbit readout
Latitude
Unknown
Longitude
Unknown
Altitude
Unknown
Speed
Unknown
Apparent Right ascension
Unknown
Apparent Declination
Unknown
Sunlit
N/A
Visualization observer readout
Local Sidereal Time
06:41:39
Azimuth
Unknown
Elevation
Unknown
Doppler factor
Unknown
Orbital elements
Apogee altitude
466.476 km
Perigee altitude
453.555 km
Semi-major axis
6,838.152 km
Eccentricity
0.00094
Inclination
52.9714°
RAAN
177.0329°
Arg. of periapsis
91.7755°
True anomaly
268.32458°
Mean anomaly
268.4328°
Eccentric anomaly
268.37869°
Mean motion
3.83827 °/min
Orbital period
93.79 mins
BSTAR
0.00066718
Loading maneuver chart data...
Computing Atmospheric mass density...
Loading historical data...
Loading historical data...
Loading historical data...
Loading historical data...
Loading historical data...
Loading historical data...
Loading historical data...

Documentation

Showing up to 5 results
|